Skip Navigation Links
NOAA logo - Click to go to the NOAA homepage
NOAA's National Weather Service
Alaska Aviation Weather Unit
  NWS logo - Click to go to the NWS homepage
Left Navbar Graphic     17 AKDT = 01 GMT

   
NOAA is celebrating 200 years of science, service, and stewardship. Visit the NOAA 200th celebration Web site to learn more.
USA.gov is the U.S. Government's official Web portal to all Federal, state and local government Web resources and services.
Facebook
NWS on Facebook

Important Change Regarding the AAWU Web Presence

 

Over the last several months, the AAWU has been working to navigate its webpages to a nationally supported server. Security, as well as other needs, have necessitated the change.  In the process, we have made an effort to enhance the functionality of our website, as well as some of our products. As of June 27, 2017, aawu.arh.noaa.gov will be discontinued. The new AAWU web address is weather.gov/aawu. It is now live and will run in-parallel with the old site until it is discontinued. Please send any feedback or questions regarding the new webpages to nws.ar.aawu.webauthors@noaa.gov.  Thank you for your patience during this time of transition.
AAWU Home :: Display TAF Add Bookmark
TAF CZFM 251542Z 2516/2519 VRB03KT P6SM SCT120 OVC260
     BECMG 2516/2518 36006KT
    RMK NXT FCST WILL BE ISSUED AT 261445Z=

METAR CZFM 251900Z 33003KT 250V010 15SM BKN110 BKN260 21/12 A2984 RMK AC5CS2 20.8/16.5/0.0 LAST OBS/NEXT 261300Z SLP109 DENSITY ALT 900FT= METAR CZFM 252100Z 23003KT 15SM -RA FU OVC068 19/14 A2984 RMK AS8 SLP107 DENSITY ALT 700FT= METAR CZFM 252200Z 23004KT 15SM -RA FU SCT074 BKN091 18/15 A2984 RMK AS4AS3 SLP106 DENSITY ALT 700FT= METAR CZFM 252300Z 24004KT 210V290 15SM -RA FU SCT059 OVC080 17/14 A2984 RMK SC4AS4 SLP106 DENSITY ALT 500FT=
 Alaska TAF Map

NOAA's National Weather Service
Alaska Aviation Weather Unit
6930 Sand Lake Road
Anchorage, AK 99502-1845
Disclaimer
Credits
Glossary
Privacy Policy
About Us
Career Opportunities
Contact AAWU Internet Services Site last modified: April, 17th 2012